Flag for U.S.A. Weather past 2 weeks in Salina, Kansas, U.S.A.

Now
65 °F

Clear.


Feels Like: 65 °F
Forecast: 56 / 76 °F
Wind: 12 mph from South

Location: Salina Municipal Airport

Current Time: Oct 22, 2014 at 12:18:37 AM

Latest Report: Oct 21, 2014 at 11:53 PM


Visibility: 10 mi

Pressure: 29.99 "Hg

Humidity: 76%

Dew point: 57 °F

Location of SalinaLocation

Historic Weather in Salina — Graph

°F

Salina temperature yesterday

Maximum temperature yesterday: 79 °F (at 2:53 PM)
Minimum temperature yesterday: 44 °F (at 7:53 AM)
Average temperature yesterday: 62 °F

Past Weeks' High & Low Weather Summary

 TemperatureHumidityPressure
High82 °F (Oct 7, 4:53 PM)93% (Oct 9, 3:53 PM)33.00 "Hg (Oct 9, 3:53 PM)
Low38 °F (Oct 15, 6:53 AM)31% (Oct 14, 2:53 PM)29.65 "Hg (Oct 12, 2:53 PM)
Average58 °F68%29.99 "Hg
* Reported Oct 6 10:53 PM — Oct 21 10:53 PM, Salina, Weather by CustomWeather, © 2014

Note: Actual official high and low records may vary slightly from our data, if they occured in-between our weather recording intervals... More about our weather records

Advertising

Salina weather history for previous 24 hours

 ConditionsComfort  
Time TempWeatherWind HumidityBarometerVisibility
10:53 PM
Oct 21
66 °FClear.13 mph73%30.00 "Hg10 mi
9:53 PM66 °FClear.10 mph73%30.00 "Hg10 mi
8:53 PM65 °FClear.8 mph76%30.00 "Hg10 mi
7:53 PM69 °FClear.8 mph66%29.99 "Hg10 mi
6:53 PM72 °FSunny.8 mph61%29.97 "Hg10 mi
5:53 PM77 °FSunny.12 mph50%29.97 "Hg10 mi
4:53 PM79 °FSunny.14 mph47%29.97 "Hg10 mi
3:53 PM79 °FScattered clouds.15 mph42%29.98 "Hg10 mi
2:53 PM79 °FSunny.15 mph41%30.00 "Hg10 mi
1:53 PM78 °FSunny.14 mph42%30.03 "Hg10 mi
12:53 PM76 °FScattered clouds.12 mph45%30.06 "Hg10 mi
11:53 AM74 °FSunny.8 mph56%30.09 "Hg10 mi
10:53 AM64 °FPassing clouds.No wind73%30.10 "Hg10 mi
9:53 AM57 °FSunny.No wind78%30.11 "Hg10 mi
8:53 AM51 °FSunny.No wind80%30.11 "Hg10 mi
7:53 AM44 °FClear.No wind89%30.09 "Hg9 mi
6:53 AM46 °FClear.No wind86%30.08 "Hg10 mi
5:53 AM46 °FClear.No wind89%30.07 "Hg10 mi
4:53 AM46 °FClear.3 mph86%30.07 "Hg10 mi
3:53 AM48 °FClear.No wind86%30.06 "Hg10 mi
2:53 AM48 °FClear.No wind86%30.07 "Hg10 mi
1:53 AM48 °FClear.No wind93%30.06 "Hg10 mi
12:53 AM50 °FClear.3 mph86%30.05 "Hg10 mi
Weather by CustomWeather, © 2014

See weather overviewHow to use our weather pages